Weather in Staroaleksandrovka

Russia / Orenburg Oblast     52°46′19″N   51°57′42″E
temp.,
°C
wind,
m/s
gust,
m/s
humid.,
%
clouds,
%
prec.,
mm/h
press.,
hPa
HPBL,
m
28 february, sun
sun2823:000wsw4898100 0.7 998345
02:000wsw3599100 0.6 998236
05:00−9nw6994100 1.3 999232
08:00−12nw7119494 0.4 1001321
11:00−13nw7119496 0.6 1003331
14:00−12nw71093100 0.1 1005400
17:00−12nw61092100 0.1 1008463
20:00−14nw61094100 0.1 1010347
1 march, mon
mon123:00−14nw599599 0.3 1013265
02:00−15nw4895100 0.2 1014222
05:00−16nw4895100 0.3 1016204
08:00−17nw479698 0.2 1018206
11:00−17nw479592 0.2 1020219
14:00−16wnw469478 0.0 1021285
17:00−15nw579379 0.0 1022339
20:00−19wnw349754 0.0 102250
2 march, tue
tue223:00−20w339828 0.0 102324
02:00−20wsw349839 0.0 102242
05:00−20sw359821 0.0 102071
08:00−17ssw5109685 0.0 1017224
11:00−14ssw7129493 0.0 1014311
14:00−10ssw81493100 0.3 1011492
17:00−6ssw81493100 1.0 1007778
20:00−4ssw71493100 0.4 1004683
3 march, wed
wed323:00−3ssw71394100 0.8 1002539
02:00−3sw61195100 0.4 1000354
05:00−3wnw4896100 0.8 1000255
08:00−5w469599 0.1 1000173
11:00−4wnw4795100 0.3 1001319
14:00−2wnw5795100 0.2 1002514
17:00−2nw5895100 0.4 1003527
20:00−4wnw369699 0.1 1004148
4 march, thu
thu423:00−5nw489496 0.3 1007214
02:00−5wnw499693 0.2 1007296
05:00−7nw5109588 0.3 1009300
08:00−10nw5109596 0.1 1011263
11:00−10wnw599597 0.1 1014279
14:00−7w479289 0.0 1015331
17:00−7wsw5108953 0.0 1015379
20:00−9sw6139218 0.0 1014338